Regional Weather Roundup
Issued by NWS

Home | Current Version | Previous Version | Graphics & Text | Print | Product List | Glossary On
Versions: 1 2 3 4 5 6 7 8 9 10 11 12 13 14 15 16 17 18 19 20 21 22 23 24 25 26 27 28 29 30 31 32 33 34 35 36 37 38 39 40 41 42 43 44 45 46 47 48 49 50
000
ASUS43 KLOT 051308
RWRIL

ILLINOIS REGIONAL WEATHER ROUNDUP
NATIONAL WEATHER SERVICE CHICAGO/ROMEOVILLE IL
800 AM CDT SUN JUL 05 2015

NOTE: "FAIR" INDICATES FEW OR NO CLOUDS BELOW 12,000 FEET WITH NO
SIGNIFICANT WEATHER AND/OR OBSTRUCTIONS TO VISIBILITY.

* THESE STATIONS ARE NOT UNDER NWS QUALITY CONTROL. THEY ALSO MAY NOT
  REPORT WEATHER SUCH AS PRECIPITATION OR FOG.

ILZ001-002-007-009-015-016-024-051400-
NORTHWEST ILLINOIS

CITY           SKY/WX    TMP DP  RH WIND       PRES   REMARKS
MOLINE         SUNNY     69  63  81 CALM      30.05S HAZE
STERLING*      SUNNY     66  63  88 CALM      30.08R
SAVANNA*       SUNNY     68  63  84 CALM      30.06S
$$

ILZ003-004-008-010-011-017-018-051400-
NORTH CENTRAL ILLINOIS

CITY           SKY/WX    TMP DP  RH WIND       PRES   REMARKS
ROCKFORD       SUNNY     67  61  81 CALM      30.09S
FREEPORT*      SUNNY     66  63  88 CALM      30.10S
ROCHELLE*      SUNNY     66  63  90 CALM      30.09S FOG
DE KALB*       SUNNY     65  60  84 CALM      30.10S
PERU*          SUNNY     69  62  81 CALM      30.09S
$$

ILZ005-006-012>014-019>023-051400-
NORTHEAST ILLINOIS

CITY           SKY/WX    TMP DP  RH WIND       PRES   REMARKS
CHICAGO-OHARE  SUNNY     69  60  73 W3        30.09R FOG
CHICAGO-MIDWAY SUNNY     73  62  68 W5        30.09R
AURORA         SUNNY     69  61  75 CALM      30.10S HAZE
LANSING*       SUNNY     68  62  80 CALM      30.10S HAZE
JOLIET*        SUNNY     69  65  85 CALM      30.10S FOG
WAUKEGAN       SUNNY     69  60  73 CALM      30.09S HAZE
DUPAGE AIRPORT SUNNY     68  61  78 CALM      30.09S HAZE
KANKAKEE*      SUNNY     68  65  89 CALM      30.11R
WHEELING       SUNNY     70  59  68 CALM      30.11R HAZE
MORRIS*        SUNNY     67  63  89 CALM      30.08S FOG
ROMEOVILLE*    SUNNY     68  62  83 CALM      30.10S HAZE
NORTHERLY ISL    N/A     73  58  59 W5          N/A
$$

LMZ740>746-051400-
SOUTHERN LAKE MICHIGAN

STATION/POSITION SKY/WX   TEMP    WIND        PRES    VSBY  WAVE
                          AIR SEA DIR/SP/G                  HT/PER
                          (F)     (DEG/KT/KT) (MB)    (MI)  (FT/S)
HARRISON CRIB              71     220/  5/  7   N/A
BURNHAM HARBOR             74     270/  3/  6   N/A
CALUMET HARBOR             68     220/  2/  4   N/A
BURNS HARBOR               67     180/  5/  8 1019.6R
MICHIGAN CITY              68     160/  6/  8   N/A
MICHIGAN CITY 6N           66 64  240/  2/  2   N/A           0
ST. JOSEPH                 65 63                N/A           0
$$

ILZ025>027-034>036-040-047-049-050-058-095>099-051400-
WEST-CENTRAL ILLINOIS

CITY           SKY/WX    TMP DP  RH WIND       PRES   REMARKS
QUINCY         SUNNY     69  64  84 SE7       30.05S HAZE
GALESBURG*     SUNNY     67  64  87 S5        30.08R
MACOMB*        SUNNY     66  65  97 CALM      30.09R FOG
JACKSONVILLE*  SUNNY     70  65  84 SE3       30.07S
PITTSFIELD*    SUNNY     68  65  89 CALM      30.08R FOG
$$

ILZ028>032-037-038-041>044-048-051>054-059>061-051400-
CENTRAL ILLINOIS

CITY           SKY/WX    TMP DP  RH WIND       PRES   REMARKS
PONTIAC        SUNNY     67  64  91 CALM      30.10S
BLOOMINGTON    SUNNY     68  64  86 S3        30.11R
DECATUR        SUNNY     67  62  84 CALM      30.09R
PEORIA         SUNNY     71  63  75 SE5       30.08R
LACON*         SUNNY     67  62  83 SE3       30.07S
LINCOLN*       SUNNY     67  63  85 CALM      30.09R FOG
SPRINGFIELD    SUNNY     71  64  78 SE3       30.08R
TAYLORVILLE    SUNNY     66  63  88 CALM      30.09R FOG
$$

ILZ033-039-045-046-055>057-062-063-051400-
EAST-CENTRAL ILLINOIS

CITY           SKY/WX    TMP DP  RH WIND       PRES   REMARKS
CHAMPAIGN      SUNNY     67  62  84 CALM      30.10R
DANVILLE*      SUNNY     66  63  89 E3        30.08S FOG
RANTOUL*       SUNNY     70  63  79 CALM      30.10R
MATTOON          N/A     67  63  87 SE3       30.08S
PARIS*         SUNNY     67  65  93 CALM      30.10S FOG
$$

ILZ079-100>102-051400-
SOUTHWEST ILLINOIS

CITY           SKY/WX    TMP DP  RH WIND       PRES   REMARKS
BELLEVILLE     SUNNY     69  69 100 SE2       30.07R
CAHOKIA*       SUNNY     71  65  81 S3        30.07R
SPARTA*        SUNNY     69  67  94 CALM      30.09R FOG
$$

ILZ064>066-069>071-074>076-080>082-084>086-088>090-092>094-051400-
SOUTH-CENTRAL ILLINOIS

CITY           SKY/WX    TMP DP  RH WIND       PRES   REMARKS
CARBONDALE     SUNNY     69  67  93 CALM      30.08R FOG
CAIRO*         MOSUNNY   71  71 100 CALM      30.08R FOG
EFFINGHAM*     SUNNY     70  62  74 CALM      30.09S
MARION         MOSUNNY   70  70 100 S3        30.08S FOG
MT. VERNON     SUNNY     66  63  88 CALM      30.08S
CENTRALIA*     SUNNY     69  65  84 CALM      30.08R HAZE
SALEM*         SUNNY     72  67  84 CALM      30.08S HAZE
$$

ILZ067-068-072-073-078-083-087-091-051400-
SOUTHEAST ILLINOIS

CITY           SKY/WX    TMP DP  RH WIND       PRES   REMARKS
LAWRENCEVILLE  PTSUNNY   72  67  84 NE5       30.08S HAZE
FLORA*         PTSUNNY   67  65  91 CALM      30.08S FOG
FAIRFIELD*     MOSUNNY   69  67  92 N3        30.06F FOG
HARRISBURG*    PTSUNNY   68  68 100 CALM      30.08S FOG
ROBINSON*      PTSUNNY   68  66  93 CALM      30.09S FOG
CARMI*         CLOUDY    72  64  77 N3        30.06S HAZE
$$

ABBREVIATIONS USED IN REMARKS
   TC - TEMPERATURE IN CELSIUS
  WCI - WIND CHILL INDEX
   HX - HEAT INDEX
  VSB - VISIBILITY
$$




USA.gov is the U.S. government's official web portal to all federal, state and local government web resources and services.